Weather in Bograd

Russia / Republic of Khakassia     54°13′38″N   90°50′41″E
temp.,
°C
wind,
m/s
gust,
m/s
humid.,
%
clouds,
%
prec.,
mm/h
press.,
hPa
HPBL,
m
6 march, sat
sat601:00−7sw5156963 0.0 1024493
04:00−7ssw31272100 0.0 1022460
07:00−8ssw4575100 0.0 1023100
10:00−7s3781100 0.0 1023365
13:00−2ssw4867100 0.0 10201298
16:00−1ssw4973100 0.0 1018790
19:00−6ssw3469100 0.0 101642
22:00−6s3470100 0.0 101555
7 march, sun
sun701:00−7s3473100 0.0 101547
04:00−8s3378100 0.0 101535
07:00−8s4481100 0.0 101653
10:00−5s3584100 0.0 1016175
13:00−1w3771100 0.0 10161241
16:00−1wnw3779100 0.0 10171139
19:00−6w2282100 0.0 101926
22:00−8sw238120 0.0 102221
8 march, mon
mon801:00−10wnw118349 0.0 102321
04:00−10se1284100 0.0 102521
07:00−11se228992 0.0 102521
10:00−8se239247 0.0 1022131
13:00−4se358654 0.0 1018313
16:00−2se3486100 0.0 1015249
19:00−6s2383100 0.0 101431
22:00−4s4574100 0.0 101485
9 march, tue
tue901:00−2ssw51270100 0.0 1013363
04:00−5ssw347967 0.0 101546
07:00−6wsw347981 0.0 101944
10:00−4ssw21280100 0.0 10221117
13:00−3w51263100 0.0 10231493
16:00−3wnw496771 0.0 10241016
19:00−9wsw226635 0.0 102621
22:00−11ssw22631 0.0 102821
10 march, wed
wed1001:00−12s22694 0.0 102621
04:00−13sse227221 0.0 102321
07:00−11sse228438 0.0 102127
10:00−6sse239037 0.0 1018132
13:00−3se249737 0.0 1016203
16:00−1se249563 0.0 1015179
19:00−5sse228850 0.0 101424
22:00−5sse2287100 0.0 101423